FW6222 Weather Reports


time (UTC)temp
C
wind
direction
speed
KPH
gust
KPH
rain 1hr
cm
rain 24hr
cm
rain mn
cm
humidity
%
barometer
mb
20260505084508 11 32 4.8 8.0 0.00 0.00 0.00 52 1008.3
20260505084004 11 56 4.8 8.0 0.00 0.00 0.00 51 1008.4
20260505083504 11 85 4.8 8.0 0.00 0.00 0.00 51 1008.6
20260505083009 11 91 4.8 8.0 0.00 0.00 0.00 50 1008.3
20260505082503 12 91 3.2 8.0 0.00 0.00 0.00 49 1008.1
20260505082008 12 92 3.2 11.3 0.00 0.00 0.00 49 1008.0
20260505081509 12 96 4.8 11.3 0.00 0.00 0.00 49 1007.9
20260505081217 12 97 6.4 11.3 0.00 0.00 0.00 49 1007.8
20260505080508 12 100 4.8 12.9 0.00 0.00 0.00 48 1007.8
20260505080003 12 107 4.8 14.5 0.00 0.00 0.00 48 1007.9
20260505075716 12 111 4.8 14.5 0.00 0.00 0.00 47 1007.8
20260505075004 12 103 8.0 22.5 0.00 0.00 0.00 47 1007.8
20260505074508 13 102 9.7 22.5 0.00 0.00 0.00 46 1007.8
20260505074009 13 103 11.3 22.5 0.00 0.00 0.00 46 1007.4
20260505073503 13 99 12.9 22.5 0.00 0.00 0.00 46 1007.3
20260505073003 13 92 14.5 29.0 0.00 0.00 0.00 46 1007.3
20260505072509 13 93 16.1 29.0 0.00 0.00 0.00 45 1007.4
20260505072003 13 95 16.1 29.0 0.00 0.00 0.00 45 1007.3
20260505071508 13 90 16.1 29.0 0.00 0.00 0.00 45 1007.2
20260505071222 13 91 17.7 30.6 0.00 0.00 0.00 45 1007.2
20260505070508 13 94 19.3 30.6 0.00 0.00 0.00 44 1007.2
20260505070008 13 92 19.3 30.6 0.00 0.00 0.00 44 1007.2
20260505065504 13 91 19.3 29.0 0.00 0.00 0.00 44 1007.1
20260505065014 13 91 17.7 29.0 0.00 0.00 0.00 44 1007.1
20260505064504 14 87 16.1 29.0 0.00 0.00 0.00 44 1007.3
20260505064220 14 85 16.1 29.0 0.00 0.00 0.00 44 1007.3
20260505063503 14 81 17.7 29.0 0.00 0.00 0.00 43 1007.3
20260505063009 14 79 17.7 29.0 0.00 0.00 0.00 43 1007.2
20260505062719 14 77 19.3 32.2 0.00 0.00 0.00 43 1007.1
20260505062003 15 73 24.1 38.6 0.00 0.00 0.00 42 1006.9
20260505061504 15 67 27.4 40.2 0.00 0.00 0.00 42 1007.0
20260505061004 15 61 29.0 41.8 0.00 0.00 0.00 41 1007.0
20260505060508 15 58 24.1 41.8 0.00 0.00 0.00 42 1006.9
20260505060004 15 56 22.5 33.8 0.00 0.00 0.00 42 1006.8
20260505055509 15 55 25.7 37.0 0.00 0.00 0.00 42 1006.8
20260505055009 15 54 27.4 38.6 0.00 0.00 0.00 41 1006.7
20260505054718 15 53 27.4 38.6 0.00 0.00 0.00 41 1006.6
20260505054004 16 49 29.0 45.1 0.00 0.00 0.00 41 1006.5
20260505053714 16 49 30.6 45.1 0.00 0.00 0.00 41 1006.5
20260505053008 16 48 29.0 45.1 0.00 0.00 0.00 40 1006.6
20260505052515 16 48 30.6 43.5 0.00 0.00 0.00 40 1006.5
20260505052004 16 47 30.6 45.1 0.00 0.00 0.00 39 1006.3
20260505051509 16 49 30.6 45.1 0.00 0.00 0.00 38 1006.2
20260505051008 17 51 30.6 43.5 0.00 0.00 0.00 38 1005.9
20260505050503 17 49 29.0 43.5 0.00 0.00 0.00 38 1005.8
20260505041504 18 20 22.5 33.8 0.00 0.00 0.00 35 1005.4
20260505041003 18 15 20.9 35.4 0.00 0.00 0.00 36 1005.5
20260505040504 18 6 20.9 35.4 0.00 0.00 0.00 36 1005.3
20260505040005 18 2 20.9 35.4 0.00 0.00 0.00 36 1005.3
20260505035508 18 2 25.7 43.5 0.00 0.00 0.00 35 1005.1
20260505035008 18 356 24.1 43.5 0.00 0.00 0.00 34 1005.2
20260505034508 18 348 22.5 40.2 0.00 0.00 0.00 34 1005.3
20260505034004 19 354 27.4 41.8 0.00 0.00 0.00 34 1005.2
20260505033503 19 3 27.4 46.7 0.00 0.00 0.00 33 1004.9
20260505033213 19 5 24.1 46.7 0.00 0.00 0.00 33 1004.9
20260505032504 20 7 17.7 38.6 0.00 0.00 0.00 30 1004.7
20260505032003 20 12 22.5 40.2 0.00 0.00 0.00 29 1004.7
20260505031508 20 5 24.1 40.2 0.00 0.00 0.00 29 1004.2
20260505031004 20 351 20.9 30.6 0.00 0.00 0.00 29 1004.1
20260505030713 20 345 20.9 30.6 0.00 0.00 0.00 29 1004.0
20260505030008 20 331 12.9 30.6 0.00 0.00 0.00 29 1003.7
20260505025504 20 335 11.3 20.9 0.00 0.00 0.00 28 1003.5
20260505025004 20 346 12.9 20.9 0.00 0.00 0.00 26 1003.2
20260505024504 20 351 11.3 19.3 0.00 0.00 0.00 26 1003.0
20260505024009 20 349 9.7 17.7 0.00 0.00 0.00 26 1002.6
20260505023504 20 353 11.3 19.3 0.00 0.00 0.00 25 1002.5
20260505023003 20 10 12.9 19.3 0.00 0.00 0.00 25 1002.6
20260505022504 21 19 12.9 19.3 0.00 0.00 0.00 24 1002.2
20260505022008 21 21 11.3 19.3 0.00 0.00 0.00 24 1002.2
20260505021503 21 26 11.3 17.7 0.00 0.00 0.00 23 1002.2
20260505021003 21 37 11.3 17.7 0.00 0.00 0.00 23 1002.1
20260505020509 21 46 12.9 17.7 0.00 0.00 0.00 23 1002.0
20260505020009 21 51 12.9 19.3 0.00 0.00 0.00 23 1001.8
20260505015714 21 51 14.5 20.9 0.00 0.00 0.00 23 1001.8
20260505015004 21 44 16.1 24.1 0.00 0.00 0.00 22 1001.6
20260505014509 22 36 17.7 24.1 0.00 0.00 0.00 22 1001.7
20260505014008 22 30 17.7 24.1 0.00 0.00 0.00 22 1001.5
20260505013503 22 28 17.7 27.4 0.00 0.00 0.00 22 1001.4
20260505013004 22 24 19.3 29.0 0.00 0.00 0.00 21 1001.4
20260505012718 22 24 19.3 32.2 0.00 0.00 0.00 21 1001.5
20260505012005 22 20 20.9 32.2 0.00 0.00 0.00 21 1001.4
20260505011509 22 17 19.3 29.0 0.00 0.00 0.00 20 1001.5
20260505011003 23 14 17.7 29.0 0.00 0.00 0.00 20 1001.4
20260505010503 23 358 17.7 32.2 0.00 0.00 0.00 20 1001.3
20260505010003 23 334 12.9 32.2 0.00 0.00 0.00 19 1001.3
20260505005504 23 307 9.7 16.1 0.00 0.00 0.00 24 1001.3
20260505005005 23 308 8.0 16.1 0.00 0.00 0.00 23 1001.2
20260505004716 23 308 8.0 16.1 0.00 0.00 0.00 24 1001.3
20260505004214 23 310 4.8 9.7 0.00 0.00 0.00 26 1001.3
20260505003717 23 312 4.8 9.7 0.00 0.00 0.00 25 1001.0
20260505003220 23 312 6.4 9.7 0.00 0.00 0.00 23 1001.0
20260505002504 24 309 6.4 9.7 0.00 0.00 0.00 22 1001.2
20260505002216 24 309 6.4 9.7 0.00 0.00 0.00 22 1001.2
20260505001503 24 307 6.4 11.3 0.00 0.00 0.00 22 1001.1
20260505001003 25 306 6.4 11.3 0.00 0.00 0.00 21 1001.2
20260505000504 25 306 8.0 14.5 0.00 0.00 0.00 21 1001.4
20260505000003 25 307 9.7 16.1 0.00 0.00 0.00 20 1001.5
20260504235721 25 308 9.7 16.1 0.00 0.00 0.00 20 1001.5
20260504235004 25 303 12.9 19.3 0.00 0.00 0.00 21 1001.6
20260504234503 25 304 12.9 19.3 0.00 0.00 0.00 20 1001.6
20260504234004 25 302 9.7 20.9 0.00 0.00 0.00 20 1001.4
20260504233503 25 304 11.3 20.9 0.00 0.00 0.00 19 1001.4
20260504233004 25 309 11.3 20.9 0.00 0.00 0.00 20 1001.5
20260504232503 26 307 11.3 20.9 0.00 0.00 0.00 19 1001.3
20260504232003 26 300 11.3 17.7 0.00 0.00 0.00 19 1001.4
20260504231503 26 299 12.9 19.3 0.00 0.00 0.00 18 1001.4
20260504231217 26 300 14.5 22.5 0.00 0.00 0.00 19 1001.4
20260504230715 26 300 12.9 22.5 0.00 0.00 0.00 19 1001.4
20260504230003 26 304 11.3 22.5 0.00 0.00 0.00 17 1001.3
20260504225503 26 297 14.5 29.0 0.00 0.00 0.00 17 1001.3
20260504225214 26 288 16.1 29.0 0.00 0.00 0.00 16 1001.1
20260504224717 26 277 16.1 27.4 0.00 0.00 0.00 15 1001.1
20260504224004 26 273 11.3 25.7 0.00 0.00 0.00 15 1001.0
20260504223504 26 289 8.0 16.1 0.00 0.00 0.00 15 1001.1
20260504223216 26 290 11.3 35.4 0.00 0.00 0.00 15 1001.1
20260504222504 27 284 11.3 35.4 0.00 0.00 0.00 15 1001.3
20260504222004 27 291 8.0 14.5 0.00 0.00 0.00 14 1001.3
20260504221503 26 294 6.4 12.9 0.00 0.00 0.00 15 1001.2
20260504221218 26 293 6.4 12.9 0.00 0.00 0.00 15 1001.3
20260504220503 26 296 11.3 20.9 0.00 0.00 0.00 14 1001.4
20260504220214 27 301 11.3 20.9 0.00 0.00 0.00 15 1001.4
20260504215504 26 300 9.7 17.7 0.00 0.00 0.00 15 1001.4
20260504215003 26 287 11.3 17.7 0.00 0.00 0.00 14 1001.4
20260504214503 27 293 12.9 19.3 0.00 0.00 0.00 14 1001.4
20260504214004 27 305 12.9 19.3 0.00 0.00 0.00 14 1001.5
20260504213503 27 302 14.5 22.5 0.00 0.00 0.00 14 1001.7
20260504213003 27 294 16.1 25.7 0.00 0.00 0.00 15 1001.8
20260504212504 27 287 16.1 25.7 0.00 0.00 0.00 14 1001.8
20260504212004 27 268 16.1 24.1 0.00 0.00 0.00 14 1001.9
20260504211716 27 261 16.1 30.6 0.00 0.00 0.00 14 1001.9
20260504211003 27 280 16.1 30.6 0.00 0.00 0.00 14 1002.1
20260504210504 27 279 17.7 46.7 0.00 0.00 0.00 14 1002.1
20260504210004 27 273 20.9 46.7 0.00 0.00 0.00 14 1002.1
20260504205504 27 275 17.7 27.4 0.00 0.00 0.00 13 1002.1
20260504205004 27 271 16.1 27.4 0.00 0.00 0.00 13 1002.2
20260504204713 27 268 16.1 27.4 0.00 0.00 0.00 14 1002.4
20260504204004 27 260 22.5 32.2 0.00 0.00 0.00 13 1002.6
20260504203503 27 257 20.9 32.2 0.00 0.00 0.00 13 1002.7
20260504203217 27 262 20.9 32.2 0.00 0.00 0.00 13 1002.7
20260504202503 27 282 17.7 29.0 0.00 0.00 0.00 13 1002.9
20260504202004 27 292 14.5 30.6 0.00 0.00 0.00 13 1003.0
20260504201504 27 293 8.0 30.6 0.00 0.00 0.00 12 1003.0
20260504201004 27 302 4.8 12.9 0.00 0.00 0.00 15 1003.1
20260504200503 27 309 8.0 17.7 0.00 0.00 0.00 14 1003.1
20260504200003 26 304 8.0 17.7 0.00 0.00 0.00 15 1003.2
20260504195504 26 243 4.8 12.9 0.00 0.00 0.00 17 1003.2
20260504195004 26 114 6.4 14.5 0.00 0.00 0.00 16 1003.1
20260504194714 26 98 6.4 14.5 0.00 0.00 0.00 16 1003.1
20260504194009 26 74 4.8 14.5 0.00 0.00 0.00 18 1003.1
20260504193509 26 68 3.2 9.7 0.00 0.00 0.00 17 1003.2
20260504193213 26 48 4.8 12.9 0.00 0.00 0.00 17 1003.3
20260504192504 26 19 9.7 20.9 0.00 0.00 0.00 16 1003.3
20260504192214 26 11 12.9 24.1 0.00 0.00 0.00 16 1003.4
20260504191503 26 21 12.9 24.1 0.00 0.00 0.00 16 1003.5
20260504191215 26 28 9.7 22.5 0.00 0.00 0.00 16 1003.5
20260504190504 27 20 4.8 12.9 0.00 0.00 0.00 17 1003.6
20260504190004 26 311 6.4 14.5 0.00 0.00 0.00 17 1003.7
20260504185503 26 288 8.0 14.5 0.00 0.00 0.00 17 1003.7
20260504185004 26 280 8.0 14.5 0.00 0.00 0.00 17 1003.9
20260504184715 26 275 6.4 14.5 0.00 0.00 0.00 17 1003.8
20260504184004 26 301 8.0 22.5 0.00 0.00 0.00 17 1003.9
20260504183503 26 293 8.0 14.5 0.00 0.00 0.00 18 1003.9
20260504183003 26 262 6.4 12.9 0.00 0.00 0.00 18 1003.9
20260504182504 26 259 4.8 12.9 0.00 0.00 0.00 18 1003.8
20260504182004 26 277 8.0 19.3 0.00 0.00 0.00 18 1004.0
20260504181503 26 293 8.0 19.3 0.00 0.00 0.00 17 1004.2
20260504181003 26 300 6.4 12.9 0.00 0.00 0.00 18 1004.2
20260504180713 26 296 8.0 17.7 0.00 0.00 0.00 18 1004.2
20260504180217 26 297 9.7 20.9 0.00 0.00 0.00 18 1004.3
20260504175715 26 305 11.3 22.5 0.00 0.00 0.00 18 1004.4
20260504175003 25 305 12.9 22.5 0.00 0.00 0.00 20 1004.5
20260504174504 25 283 12.9 19.3 0.00 0.00 0.00 20 1004.7
20260504174004 25 263 12.9 19.3 0.00 0.00 0.00 20 1004.7
20260504173503 25 269 17.7 27.4 0.00 0.00 0.00 20 1004.8
20260504173003 25 272 16.1 27.4 0.00 0.00 0.00 20 1005.2
20260504172504 25 273 14.5 25.7 0.00 0.00 0.00 21 1005.3
20260504172004 25 276 16.1 25.7 0.00 0.00 0.00 21 1005.3
20260504171503 25 288 16.1 27.4 0.00 0.00 0.00 21 1005.3
20260504171004 25 298 19.3 30.6 0.00 0.00 0.00 23 1005.5
20260504170503 25 295 19.3 30.6 0.00 0.00 0.00 22 1005.5
20260504160214 22 293 14.5 22.5 0.00 0.00 0.00 28 1006.3
20260504150503 21 285 11.3 25.7 0.00 0.00 0.00 27 1007.0
20260504141004 17 276 11.3 17.7 0.00 0.00 0.00 35 1006.9
20260504140504 16 260 11.3 16.1 0.00 0.00 0.00 37 1006.8
20260504130722 11 248 1.6 4.8 0.00 0.00 0.00 52 1007.2
20260504110503 6 239 8.0 22.5 0.00 0.00 0.00 69 1006.8
20260504100504 7 156 0.0 3.2 0.00 0.00 0.00 62 1006.7